Cape Town, South Africa

10:38 PM SAST on December 05, 2016 (GMT +0200)
Cape Town International | | Change Station

Elev 138 ft 33.96 °S, 18.60 °E | Updated 38 minutes ago

Clear
Clear
66 °F
Feels Like 66 °F
N
5
Wind Variable Wind from SW

Today
High -- | Low -- °F
--% Chance of Precip.
Yesterday
High -- | Low -- °F
Precip. -- in
Pressure 29.86 in
Visibility -9999.0 miles
Clouds
Dew Point 57 °F
Humidity 73%
Rainfall 0.00 in
Snow Depth Not available.
5:27 AM 7:45 PM
Waxing Crescent, 34% visible
METAR FACT 052000Z 22004KT 170V270 CAVOK 19/14 Q1011 NOSIG
Pressure 29.86 in
Visibility -9999.0 miles
Clouds
Dew Point 57 °F
Humidity 73%
Rainfall 0.00 in
Snow Depth Not available.
5:27 AM 7:45 PM
Waxing Crescent, 34% visible
METAR FACT 052000Z 22004KT 170V270 CAVOK 19/14 Q1011 NOSIG

10-Day Weather Forecast

No radar image for this location.
×

Almanac

Astronomy

Dec. 05, 2016 Rise Set
Actual Time
Civil Twilight
Nautical Twilight
Astronomical Twilight
Moon
Length of Visible Light
Length of Day
Tomorrow will be .
, % of the Moon is Illuminated

Today's Extremes

Country Highs Country Lows

Community

WunderPhotos

Upload Photos

1,955,859 photos uploaded!

WunderBlog® & News

Nearby

Air Quality

  Air Quality AQ Index Pollutant
Not available.

Snow Depth

Station Depth Elevation

Earthquake Activity

City Distance Mag. Time & Date
Minimum magnitude displayed is 2.5.

Coastal Water Temperatures

Place Temperature

Stations

Nearby Weather Stations

Station Location Temp. Windchill Dew Point Humidity Wind Precip. Elev Updated Type